OBJECT K, 42834

Orbit data source: Space-Track

You're viewing an Uncataloged Satellite

Recently launched and/or uncataloged satellites may have evolving metadata. Metadata may include but not limited to: Owner, Maufacturer, Bus, Motor, and Mission.

OBJECT K, 42834 is a satellite in SSO that was launched on Fri, 14 Jul 2017 UTC via a SOYUZ-2-1A launch vehicle from the Tyuratam Missile And Space Complex (TTMTR). Unknown objects in Earth's orbit typically refer to objects detected orbiting the Earth but have not yet been identified or cataloged. These objects could be anything from previously untracked satellites, spent rocket stages, debris from satellite collisions, or even natural meteoroids temporarily captured by Earth's gravity.

Loading next visibility...
Identifier
42834, 2017-042K
Orbit
SSO
Country
Flag of TBDTBD
Related business
None
Manufacturer
Unknown
Mission
Non-operational Civil Technology
Bus & Motor
Unknown
Mass
Unknown
Launch date (UTC)
2017-07-14 (9 years ago)
Launch vehicle
SOYUZ-2-1A
Launch site
Tyuratam Missile And Space Complex (TTMTR)
Object type
Unknown
Shape & HBR
Box + 2 Pan, 0.2 m
Radar Cross Section
0.092 m², Medium (>0.1 m² and < 1m²)

Expand to show TLE details & history
Last TLE update: 6 hours ago

TLE from 6 hours ago
0 OBJECT K
1 42834U 17042K   26133.17589619  .00003014  00000-0  19580-3 0  9990
2 42834  97.4187 295.9320 0008800 172.6105 187.5255 15.08730724481707
Epoch: 2026-05-13T04:13Z
TLE epoch observation values (Epoch: 2026-05-13T04:13:17.430Z)
Latitude
-0.00007°
Longitude
1.6697°
Altitude
549.189 km
Speed
7.584 km/s
True Right ascension
19h 43m 43s
True Declination
0° 00' 00"
Sunlit
Object was in partial shadow at epoch
Visualization orbit readout
Latitude
Unknown
Longitude
Unknown
Altitude
Unknown
Speed
Unknown
Apparent Right ascension
Unknown
Apparent Declination
Unknown
Sunlit
N/A
Visualization observer readout
Local Sidereal Time
18:33:39
Azimuth
Unknown
Elevation
Unknown
Doppler factor
Unknown
Orbital elements
Apogee altitude
543.144 km
Perigee altitude
530.973 km
Semi-major axis
6,915.196 km
Eccentricity
0.00088
Inclination
97.4187°
RAAN
295.932°
Arg. of periapsis
172.6105°
True anomaly
187.51231°
Mean anomaly
187.5255°
Eccentric anomaly
187.5189°
Mean motion
3.7743 °/min
Orbital period
95.38 mins
BSTAR
0.0001958
Loading maneuver chart data...
Computing Atmospheric mass density...
Loading historical data...
Loading historical data...
Loading historical data...
Loading historical data...
Loading historical data...
Loading historical data...
Loading historical data...

Documentation

Showing up to 5 results
|